Location: Bats
(43.6587°N, 0.4584°W)
Time: 08:17:04
(UTC+00:00)

USA 238 - Pass Details

Date: 12 January 2026
Orbit: 883 x 1328 km, 63.4° (Epoch: 10 January)

Event Time Altitude Azimuth Distance (km) Brightness Sun altitude
Rises 18:38:09 0° 323° (NW) 3,973 7.0 -19.6°
Reaches altitude 10° 18:40:45 10° 325° (NW) 3,071 6.4 -20.0°
Maximum altitude 18:48:14 79° 52° (NE) 1,270 3.9 -21.4°
Drops below altitude 10° 18:56:22 10° 140° (SE) 3,319 6.0 -22.8°
Enters shadow 18:56:26 10° 140° (SE) 3,340 6.0 -22.8°
